Flag for U.S.A. Weather past 2 weeks in Marengo, Indiana, U.S.A.

Now
84 °F

Sunny.


Feels Like: 83 °F
Forecast: 58 / 81 °F
Wind: 5 mph from North

Location: Bowling Green-Warren County Regional Airport

Current Time: Jul 30, 2014 at 4:13:16 PM

Latest Report: Jul 30, 2014 at 3:53 PM


Visibility: 10 mi

Pressure: 30.07 "Hg

Humidity: 35%

Dew point: 53 °F

Location of MarengoLocation

Historic Weather in Marengo — Graph

°F

Marengo temperature yesterday

Maximum temperature yesterday: 78 °F (at 3:53 PM)
Minimum temperature yesterday: 58 °F (at 6:53 AM)
Average temperature yesterday: 69 °F

Past Weeks' High & Low Weather Summary

 TemperatureHumidityPressure
High95 °F (Jul 27, 2:53 PM)97% (Jul 19, 7:53 AM)30.13 "Hg (Jul 19, 7:53 AM)
Low54 °F (Jul 25, 6:53 AM)34% (Jul 17, 2:53 PM)29.78 "Hg (Jul 27, 6:53 PM)
Average74 °F67%30.01 "Hg
* Reported Jul 15 2:53 PM — Jul 30 2:53 PM, Marengo, Weather by CustomWeather, © 2014

Note: Actual official high and low records may vary slightly from our data, if they occured in-between our weather recording intervals... More about our weather records

Advertising

Marengo weather history for previous 24 hours

 ConditionsComfort  
Time TempWeatherWind HumidityBarometerVisibility
2:53 PM
Jul 30
80 °FScattered clouds.5 mph38%30.08 "Hg10 mi
1:53 PM80 °FPartly sunny.3 mph38%30.09 "Hg10 mi
12:53 PM81 °FPassing clouds.7 mph37%30.11 "Hg10 mi
11:53 AM78 °FSunny.No wind43%30.11 "Hg10 mi
10:53 AM76 °FSunny.6 mph47%30.11 "Hg10 mi
9:53 AM72 °FSunny.3 mph53%30.11 "Hg10 mi
8:53 AM65 °FSunny.No wind73%30.11 "Hg10 mi
7:53 AM59 °FSunny.No wind87%30.10 "Hg9 mi
6:53 AM57 °FClear.3 mph87%30.10 "Hg10 mi
5:53 AM57 °FClear.No wind83%30.09 "Hg10 mi
4:53 AM58 °FClear.No wind87%30.08 "Hg10 mi
3:53 AM59 °FClear.No wind84%30.08 "Hg10 mi
2:53 AM60 °FClear.No wind83%30.09 "Hg10 mi
1:53 AM61 °FClear.No wind81%30.09 "Hg10 mi
12:53 AM63 °FClear.No wind78%30.09 "Hg10 mi
11:53 PM
Jul 29
64 °FClear.No wind73%30.08 "Hg10 mi
10:53 PM65 °FClear.No wind70%30.08 "Hg10 mi
9:53 PM70 °FSunny.No wind57%30.07 "Hg10 mi
8:53 PM73 °FSunny.6 mph51%30.06 "Hg10 mi
7:53 PM76 °FPartly sunny.7 mph43%30.06 "Hg10 mi
6:53 PM78 °FOvercast.3 mph42%30.06 "Hg10 mi
5:53 PM76 °FMore clouds than sun.9 mph45%30.07 "Hg10 mi
4:53 PM78 °FPartly sunny.10 mph39%30.07 "Hg10 mi
Weather by CustomWeather, © 2014

See weather overviewHow to use our weather pages